This is the latest recevied weather packets stored in our database for station/object W4MJZ-1. If no packets are shown the sender has not sent any weather packets the latest 1 day(s).
| Time | Temp. | Humidity | Pressure | Rain* | Wind** | Luminosity | Snow |
|---|---|---|---|---|---|---|---|
| 1778030239 | 21.67° C | 31% | 1017.7 hPa | 0 mm | - | - | - |
| 1778030111 | 21.67° C | 31% | 1017.7 hPa | 0 mm | - | - | - |
| 1778029939 | 21.67° C | 31% | 1017.7 hPa | 0 mm | - | - | - |
| 1778029816 | 21.67° C | 32% | 1018.1 hPa | 0 mm | - | - | - |
| 1778029638 | 21.67° C | 32% | 1018.1 hPa | 0 mm | - | - | - |
| 1778029484 | 21.11° C | 33% | 1018.1 hPa | 0 mm | - | - | - |
| 1778029039 | 21.11° C | 31% | 1018.1 hPa | 0 mm | - | - | - |
| 1778028902 | 22.22° C | 30% | 1017.7 hPa | 0 mm | - | - | - |
| 1778028584 | 22.78° C | 29% | 1017.7 hPa | 0 mm | - | - | - |
| 1778028279 | 22.22° C | 29% | 1017.7 hPa | 0 mm | - | - | - |
| 1778027839 | 22.22° C | 29% | 1017.7 hPa | 0.25 mm | - | - | - |
| 1778027678 | 22.22° C | 28% | 1017.7 hPa | 0.25 mm | - | - | - |
| 1778027539 | 22.22° C | 28% | 1017.7 hPa | 0.25 mm | - | - | - |
| 1778027361 | 22.78° C | 28% | 1017.7 hPa | 0.25 mm | - | - | - |
| 1778027238 | 22.78° C | 28% | 1017.7 hPa | 0.25 mm | - | - | - |
| 1778027112 | 23.33° C | 27% | 1017.7 hPa | 0.25 mm | - | - | - |
| 1778026764 | 22.78° C | 26% | 1017.7 hPa | 0.25 mm | - | - | - |
| 1778026638 | 22.78° C | 26% | 1017.7 hPa | 0.25 mm | - | - | - |
| 1778026507 | 22.78° C | 26% | 1018.1 hPa | 0.25 mm | - | - | - |
| 1778025138 | 23.33° C | 25% | 1017.7 hPa | 0.25 mm | - | - | - |
| 1778024081 | 23.33° C | 24% | 1017.3 hPa | 0 mm | - | - | - |
| 1778023551 | 23.33° C | 23% | 1017.3 hPa | 0 mm | - | - | - |
| 1778023219 | 23.89° C | 24% | 1017.7 hPa | 0 mm | - | - | - |
| 1778022140 | 23.89° C | 27% | 1017.3 hPa | 0 mm | - | - | - |
| 1778021374 | 23.89° C | 29% | 1017.7 hPa | 0 mm | - | - | - |
* Rain latest hour (hover to see other rain measurements)
** Current wind speed in m/s (hover to see current wind gust speed)